Location: Chacón
(10.5789°N, 66.9317°W)
Time: 22:05:55
(UTC+00:00)

Sakura Rocket - Pass Details

Date: 12 August 2024
Orbit: 475 x 1710 km, 28.7° (Epoch: 09 September)

Event Time Altitude Azimuth Distance (km) Brightness Sun altitude
Rises 00:42:46 0° 237° (WSW) 2,673 6.8 -27.6°
Reaches altitude 10° 00:45:07 10° 235° (SW) 1,698 5.7 -28.1°
Enters shadow 00:45:43 14° 234° (SW) 1,447 5.3 -28.3°
